Hourly Weather Roundup
Issued by NWS

Home | Current Version | Previous Version | Text Only | Print | Product List | Glossary On
Versions: 1 2 3 4 5 6 7 8 9 10 11 12 13 14 15 16 17 18 19 20 21 22 23 24 25 26 27 28 29 30 31 32 33 34 35 36 37 38 39 40 41 42 43 44 45 46 47 48 49 50
000
NZUS43 KILX 292010
HWRCRS

NWR Hourly Weather Roundup
National Weather Service Lincoln IL
300 PM CDT SAT APR 29 2017


CITY           SKY/WX    TMP DP  RH WIND       PRES   REMARKS
Champaign      CLOUDY    57  54  89 NE21      29.94F FOG
Lawrenceville  MOSUNNY   79  66  64 SE17      29.93F HX  81
Peoria         HVY RAIN  43  42  97 NE17G26   30.02R FOG
Springfield    LGT RAIN  52  50  93 NE22G30   29.88F FOG
$$


CITY           SKY/WX    TMP DP  RH WIND       PRES   REMARKS
Bloomington    LGT RAIN  45  45 100 NE24G33   29.98F
Danville       CLOUDY    57  56  97 NE12      29.97F FOG
Decatur        CLOUDY    56  56 100 E17G25    29.91F FOG
Effingham      CLOUDY    74  69  82 E14       29.90F
Flora          PTSUNNY   78  69  73 SE17      29.90F HX  80
Galesburg      TSTM      41  39  94 NE24      30.02F WCI  31
Jacksonville   TSTM      49  48  95 NE29G38     N/A
Lacon          CLOUDY    41  40  97 NE13G18   30.07S WCI  34
La Salle       RAIN      39  37  90 NE20      30.10R WCI  30
Lincoln        TSTM      49  48  97 NE22G35   29.93F
Litchfield     CLOUDY    65  63  96 E16G23    29.81F

CITY           SKY/WX    TMP DP  RH WIND       PRES   REMARKS
Macomb         TSTM      42  41  97 NE24G33   30.03R VSB 1   WCI  32
Mattoon        CLOUDY    69  66  90 E15       29.89F
Moline         TSTM      43  39  86 NE13      30.11R FOG
Olney          CLOUDY    76  70  82 E13       29.91F
Paris          CLOUDY    64  63  97 NE10      29.97F
Pontiac        CLOUDY    45  44  99 NE25G31   30.03F
Quincy         TSTM      45  44  97 N22G31    29.90F VSB 1
Rantoul        CLOUDY    55  53  94 NE23      29.97F FOG
Robinson       PTSUNNY   76  65  69 SE13      29.94F
Taylorville    CLOUDY    58  58  99 E13       29.87F FOG
Terre Haute    CLOUDY    73  63  70 SE9       29.97R
$$


CITY           SKY/WX    TMP DP  RH WIND       PRES   REMARKS
Burlington     TSTM      42  32  67 NE18G29   30.01R WCI  34
Chicago        RAIN      40  36  86 NE17G26   30.13F FOG     WCI  31
Des Moines     LGT RAIN  44  40  85 NE20G30   30.09S
Evansville     MOSUNNY   83  69  62 E8        29.93S HX  86
Indianapolis   CLOUDY    74  64  71 SE9       29.99F
Kansas City    LGT RAIN  48  46  93 NE25G33   29.79F
Milwaukee      CLOUDY    40  32  73 N22G33    30.19F WCI  30
St Louis       CLOUDY    71  65  81 SE20      29.74F
$$





USA.gov is the U.S. government's official web portal to all federal, state and local government web resources and services.